Location: Armidale
(30.5016°S, 151.6662°E)
Time: 06:13:37
(UTC+10:00)

Hubble Space Telescope - Visible Passes

Search period start: 22 August 2019 00:00
Search period end: 01 September 2019 00:00
Orbit: 536 x 540 km, 28.5° (Epoch: 21 August)

Date Brightness Start Highest point End Pass type
(mag) Time Alt. Az. Time Alt. Az. Time Alt. Az.
22 Aug 1.0 05:01:24 35° WNW 05:02:56 63° N 05:07:04 10° E visible
23 Aug 0.9 04:51:28 49° NW 04:52:23 66° N 04:56:32 10° E visible
24 Aug 0.8 04:41:31 63° NNW 04:41:51 67° N 04:46:00 10° E visible
25 Aug 0.9 04:31:33 64° NNE 04:31:33 64° NNE 04:35:27 10° E visible
26 Aug 1.5 04:21:36 50° NE 04:21:36 50° NE 04:24:53 10° ENE visible
27 Aug 2.1 04:11:40 36° ENE 04:11:40 36° ENE 04:14:20 10° ENE visible
27 Aug 2.1 05:47:31 10° W 05:51:10 29° NNW 05:54:48 10° NE visible
28 Aug 2.7 04:01:46 26° ENE 04:01:46 26° ENE 04:03:44 10° ENE visible
28 Aug 2.3 05:37:09 10° WNW 05:40:33 24° NNW 05:43:56 10° NNE visible
29 Aug 3.3 03:51:54 18° ENE 03:51:54 18° ENE 03:53:07 10° ENE visible
29 Aug 2.5 05:27:15 12° WNW 05:29:56 20° NNW 05:32:58 10° NNE visible
30 Aug 3.7 03:42:06 12° NE 03:42:06 12° NE 03:42:28 10° ENE visible
30 Aug 2.8 05:17:27 12° NW 05:19:18 16° NNW 05:21:51 10° NNE visible
31 Aug 2.9 05:07:42 12° NW 05:08:39 12° NNW 05:10:24 10° N visible
